User: anonymous   Login
Location: Unspecified
(48.2082°N, 0.0000°E)
Time: 11:17:34
(UTC+00:00)
Language:

Courier 1B - Orbit

View from above orbital plane
View from above orbital plane
View from above satellite
View from above satellite

Ground track
Ground track

The orbit data is extracted from the following two-line orbital elements,

1    58U 60013A   19168.42124056 +.00000090 +00000-0 +40697-5 0  9992
2    58 028.3268 151.5976 0164912 278.8536 079.3371 13.46317868889259
Epoch (UTC): 17 June 2019 10:06:35
Eccentricity: 0.0164912
inclination: 28.3268°
perigee height: 963 km
apogee height: 1209 km
right ascension of ascending node: 151.5976°
argument of perigee: 278.8536°
revolutions per day: 13.46317868
mean anomaly at epoch: 79.3371°
orbit number at epoch: 88925

The dashed part of the orbit path shows where the satellite is in the earth's shadow,  

DLR